Weather reports worldwide

Advertisment
Mafraq, Jordan (40265): temperature & dewpoint: 18.05.2018 09:00:00 - 24.05.2018 09:00:00 (EEST)Mafraq, Jordan (40265): wind speed: 18.05.2018 09:00:00 - 24.05.2018 09:00:00 (EEST)Mafraq, Jordan (40265): wind direction: 18.05.2018 09:00:00 - 24.05.2018 09:00:00 (EEST)Mafraq, Jordan (40265): reduced air pressure: 18.05.2018 09:00:00 - 24.05.2018 09:00:00 (EEST)Mafraq, Jordan (40265): visibility: 18.05.2018 09:00:00 - 24.05.2018 09:00:00 (EEST)
Date & Time tt [°C] td [°C] ff [km/h] ff [kn] dd ppp [hPa] vv [km]
24.05.2018 09:00:00 20,4 17,6 11 6 NW 1014,4 4,0
24.05.2018 08:00:00 - - - - - - -
24.05.2018 07:00:00 - - - - - - -
24.05.2018 06:00:00 16,4 14,0 0 0 N 1013,6 4,0
24.05.2018 05:00:00 - - - - - - -
24.05.2018 04:00:00 - - - - - - -
24.05.2018 03:00:00 17,4 14,7 8 4 NNW 1013,1 8
24.05.2018 02:00:00 - - - - - - -
24.05.2018 01:00:00 - - - - - - -
24.05.2018 00:00:00 18,3 14,5 15 8 NW 1013,6 8
23.05.2018 23:00:00 - - - - - - -
23.05.2018 22:00:00 - - - - - - -
23.05.2018 21:00:00 22,8 9,1 8 4 N 1012,8 8
23.05.2018 20:00:00 - - - - - - -
23.05.2018 19:00:00 - - - - - - -
23.05.2018 18:00:00 28,6 5,0 29 16 WNW 1012,4 5
23.05.2018 17:00:00 - - - - - - -
23.05.2018 16:00:00 - - - - - - -
23.05.2018 15:00:00 31,8 7,4 29 16 W 1012,3 4,0
23.05.2018 14:00:00 - - - - - - -
23.05.2018 13:00:00 - - - - - - -
23.05.2018 12:00:00 33,0 1,1 26 14 W 1012,6 5
23.05.2018 11:00:00 - - - - - - -
23.05.2018 10:00:00 - - - - - - -
23.05.2018 09:00:00 30,0 7,6 18 10 WSW 1012,4 8
23.05.2018 08:00:00 - - - - - - -
23.05.2018 07:00:00 - - - - - - -
23.05.2018 06:00:00 21,6 5,3 0 0 N 1012,8 8
23.05.2018 05:00:00 - - - - - - -
23.05.2018 04:00:00 - - - - - - -
23.05.2018 03:00:00 23,6 6,8 0 0 N 1013,2 10
23.05.2018 02:00:00 - - - - - - -
23.05.2018 01:00:00 - - - - - - -
23.05.2018 00:00:00 24,4 5,9 0 0 N 1014,2 10
22.05.2018 23:00:00 - - - - - - -
22.05.2018 22:00:00 - - - - - - -
22.05.2018 21:00:00 28,8 6,6 0 0 N 1013,7 10
22.05.2018 20:00:00 - - - - - - -
22.05.2018 19:00:00 - - - - - - -
22.05.2018 18:00:00 32,8 8,1 8 4 NW 1014,4 8
22.05.2018 17:00:00 - - - - - - -
22.05.2018 16:00:00 - - - - - - -
22.05.2018 15:00:00 35,4 5,2 8 4 WSW 1014,0 8
22.05.2018 14:00:00 - - - - - - -
22.05.2018 13:00:00 - - - - - - -
22.05.2018 12:00:00 32,6 6,6 11 6 SSW 1014,9 8
22.05.2018 11:00:00 - - - - - - -
22.05.2018 10:00:00 - - - - - - -
22.05.2018 09:00:00 25,6 10,3 11 6 SSE 1014,9 4,0
22.05.2018 08:00:00 - - - - - - -
22.05.2018 07:00:00 - - - - - - -
22.05.2018 06:00:00 20,8 7,2 0 0 N 1013,5 3,0
22.05.2018 05:00:00 - - - - - - -
22.05.2018 04:00:00 - - - - - - -
22.05.2018 03:00:00 21,6 4,7 0 0 N 1013,2 10
22.05.2018 02:00:00 - - - - - - -
22.05.2018 01:00:00 - - - - - - -
22.05.2018 00:00:00 24,2 4,4 8 4 N 1013,3 10
21.05.2018 23:00:00 - - - - - - -
21.05.2018 22:00:00 - - - - - - -
21.05.2018 21:00:00 27,0 3,2 22 12 WNW 1012,0 10
21.05.2018 20:00:00 - - - - - - -
21.05.2018 19:00:00 - - - - - - -
21.05.2018 18:00:00 32,0 4,0 26 14 WNW 1012,1 8
21.05.2018 17:00:00 - - - - - - -
21.05.2018 16:00:00 - - - - - - -
21.05.2018 15:00:00 33,0 2,7 26 14 WNW 1012,1 4,0
21.05.2018 14:00:00 - - - - - - -
21.05.2018 13:00:00 - - - - - - -
21.05.2018 12:00:00 31,0 5,3 26 14 WNW 1012,7 5
21.05.2018 11:00:00 - - - - - - -
21.05.2018 10:00:00 - - - - - - -
21.05.2018 09:00:00 27,6 11,4 15 8 W 1012,8 5
21.05.2018 08:00:00 - - - - - - -
21.05.2018 07:00:00 - - - - - - -
21.05.2018 06:00:00 18,0 6,8 0 0 N 1011,7 5
21.05.2018 05:00:00 - - - - - - -
21.05.2018 04:00:00 - - - - - - -
21.05.2018 03:00:00 21,0 4,3 0 0 N 1009,8 10
21.05.2018 02:00:00 - - - - - - -
21.05.2018 01:00:00 - - - - - - -
21.05.2018 00:00:00 23,4 7,0 8 4 NNW 1009,7 10
20.05.2018 23:00:00 - - - - - - -
20.05.2018 22:00:00 - - - - - - -
20.05.2018 21:00:00 27,0 9,5 11 6 NW 1009,5 8
20.05.2018 20:00:00 - - - - - - -
20.05.2018 19:00:00 - - - - - - -
20.05.2018 18:00:00 33,0 4,1 18 10 WNW 1008,8 5
20.05.2018 17:00:00 - - - - - - -
20.05.2018 16:00:00 - - - - - - -
20.05.2018 15:00:00 35,8 2,5 18 10 W 1009,4 4,0
20.05.2018 14:00:00 - - - - - - -
20.05.2018 13:00:00 - - - - - - -
20.05.2018 12:00:00 34,6 4,1 8 4 SSW 1009,4 4,0
20.05.2018 11:00:00 - - - - - - -
20.05.2018 10:00:00 - - - - - - -
20.05.2018 09:00:00 29,4 5,3 21 11 SSE 1009,8 4,0
20.05.2018 08:00:00 - - - - - - -
20.05.2018 07:00:00 - - - - - - -
20.05.2018 06:00:00 21,4 6,3 0 0 N 1009,1 6
20.05.2018 05:00:00 - - - - - - -
20.05.2018 04:00:00 - - - - - - -
20.05.2018 03:00:00 24,2 3,4 0 0 N 1009,6 10
20.05.2018 02:00:00 - - - - - - -
20.05.2018 01:00:00 - - - - - - -
20.05.2018 00:00:00 25,4 8,8 0 0 N 1009,7 10
19.05.2018 23:00:00 - - - - - - -
19.05.2018 22:00:00 - - - - - - -
19.05.2018 21:00:00 29,6 4,4 8 4 WNW 1009,0 7
19.05.2018 20:00:00 - - - - - - -
19.05.2018 19:00:00 - - - - - - -
19.05.2018 18:00:00 35,8 1,7 13 7 WNW 1008,7 6
19.05.2018 17:00:00 - - - - - - -
19.05.2018 16:00:00 - - - - - - -
19.05.2018 15:00:00 37,2 -4,3 15 8 SSE 1009,2 5
19.05.2018 14:00:00 - - - - - - -
19.05.2018 13:00:00 - - - - - - -
19.05.2018 12:00:00 34,2 1,3 22 12 SSE 1010,8 5
19.05.2018 11:00:00 - - - - - - -
19.05.2018 10:00:00 - - - - - - -
19.05.2018 09:00:00 29,5 7,0 16 9 SE 1011,2 5
19.05.2018 08:00:00 - - - - - - -
19.05.2018 07:00:00 - - - - - - -
19.05.2018 06:00:00 22,6 1,1 16 9 ESE 1010,7 7
19.05.2018 05:00:00 - - - - - - -
19.05.2018 04:00:00 - - - - - - -
19.05.2018 03:00:00 24,2 3,4 0 0 N 1009,8 10
19.05.2018 02:00:00 - - - - - - -
19.05.2018 01:00:00 - - - - - - -
19.05.2018 00:00:00 23,6 2,0 0 0 N 1010,2 10
18.05.2018 23:00:00 - - - - - - -
18.05.2018 22:00:00 - - - - - - -
18.05.2018 21:00:00 28,8 1,6 0 0 N 1009,7 10
18.05.2018 20:00:00 - - - - - - -
18.05.2018 19:00:00 - - - - - - -
18.05.2018 18:00:00 34,5 0,4 9 5 ESE 1009,5 10
18.05.2018 17:00:00 - - - - - - -
18.05.2018 16:00:00 - - - - - - -
18.05.2018 15:00:00 34,5 -4,6 9 5 S 1010,7 10
18.05.2018 14:00:00 - - - - - - -
18.05.2018 13:00:00 - - - - - - -
18.05.2018 12:00:00 31,8 2,9 18 10 SE 1012,6 6
18.05.2018 11:00:00 - - - - - - -
18.05.2018 10:00:00 - - - - - - -
18.05.2018 09:00:00 27,6 5,6 15 8 ESE 1013,1 6

tt = temperature
td = dewpoint
ff = wind speed
dd = wind direction
ppp = reduced air pressure
vv = visibility

Next stations